Time,TemperatureF,DewpointF,PressureIn,WindDirection,WindDirectionDegrees,WindSpeedMPH,WindSpeedGustMPH,Humidity,HourlyPrecipIn,Conditions,Clouds,dailyrainin,SoftwareType,DateUTC
2013-08-30 00:09:00,74.4,69.0,29.98,SSW,203,7.0,14.0,84,0.00,,,0.03,weatherlink.com 1.10,2013-08-30 04:09:00,
2013-08-30 00:24:00,74.3,69.0,29.98,East,81,3.0,14.0,84,0.00,,,0.00,weatherlink.com 1.10,2013-08-30 04:24:00,
2013-08-30 00:39:00,74.3,70.0,29.98,WSW,252,4.0,14.0,85,0.00,,,0.00,weatherlink.com 1.10,2013-08-30 04:39:00,
2013-08-30 00:54:00,74.1,69.0,29.98,SSW,200,4.0,12.0,85,0.00,,,0.00,weatherlink.com 1.10,2013-08-30 04:54:00,
2013-08-30 01:09:00,74.2,70.0,29.98,WSW,238,4.0,12.0,85,0.00,,,0.00,weatherlink.com 1.10,2013-08-30 05:09:00,
2013-08-30 01:24:00,74.1,69.0,29.97,SW,217,7.0,10.0,85,0.00,,,0.00,weatherlink.com 1.10,2013-08-30 05:24:00,
2013-08-30 01:39:00,74.1,69.0,29.97,South,181,2.0,11.0,85,0.00,,,0.00,weatherlink.com 1.10,2013-08-30 05:39:00,
2013-08-30 01:54:00,74.2,70.0,29.96,SW,222,9.0,12.0,85,0.00,,,0.00,weatherlink.com 1.10,2013-08-30 05:54:00,
2013-08-30 02:09:00,74.2,69.0,29.96,West,269,7.0,14.0,84,0.00,,,0.00,weatherlink.com 1.10,2013-08-30 06:09:00,
2013-08-30 02:24:00,74.1,69.0,29.96,SW,229,4.0,13.0,85,0.00,,,0.00,weatherlink.com 1.10,2013-08-30 06:24:00,
2013-08-30 02:39:00,74.2,70.0,29.96,SSW,195,9.0,14.0,87,0.00,,,0.00,weatherlink.com 1.10,2013-08-30 06:39:00,
2013-08-30 02:54:00,74.0,70.0,29.96,SW,234,7.0,11.0,87,0.00,,,0.00,weatherlink.com 1.10,2013-08-30 06:54:00,
2013-08-30 03:09:00,74.2,70.0,29.96,WSW,248,6.0,13.0,87,0.00,,,0.00,weatherlink.com 1.10,2013-08-30 07:09:00,
2013-08-30 03:24:00,74.1,70.0,29.96,SSW,202,6.0,12.0,87,0.00,,,0.00,weatherlink.com 1.10,2013-08-30 07:24:00,
2013-08-30 03:39:00,74.1,70.0,29.96,SSW,207,7.0,12.0,88,0.00,,,0.00,weatherlink.com 1.10,2013-08-30 07:39:00,
2013-08-30 03:54:00,74.1,70.0,29.96,SSW,207,7.0,14.0,88,0.00,,,0.00,weatherlink.com 1.10,2013-08-30 07:54:00,
2013-08-30 04:09:00,74.2,71.0,29.97,SW,221,7.0,14.0,89,0.00,,,0.00,weatherlink.com 1.10,2013-08-30 08:09:00,
2013-08-30 04:24:00,74.0,71.0,29.96,SW,214,12.0,13.0,90,0.00,,,0.00,weatherlink.com 1.10,2013-08-30 08:24:00,
2013-08-30 04:39:00,74.2,71.0,29.96,West,269,9.0,14.0,90,0.00,,,0.00,weatherlink.com 1.10,2013-08-30 08:39:00,
2013-08-30 04:54:00,74.0,71.0,29.97,SSW,205,7.0,13.0,90,0.00,,,0.00,weatherlink.com 1.10,2013-08-30 08:54:00,
2013-08-30 05:09:00,74.0,71.0,29.97,SSW,205,8.0,14.0,90,0.00,,,0.00,weatherlink.com 1.10,2013-08-30 09:09:00,
2013-08-30 05:24:00,74.1,71.0,29.97,SW,226,11.0,15.0,90,0.00,,,0.00,weatherlink.com 1.10,2013-08-30 09:24:00,
2013-08-30 05:39:00,74.1,71.0,29.98,SW,232,9.0,15.0,90,0.00,,,0.00,weatherlink.com 1.10,2013-08-30 09:39:00,
2013-08-30 05:54:00,74.0,71.0,29.98,SW,214,8.0,12.0,90,0.00,,,0.00,weatherlink.com 1.10,2013-08-30 09:54:00,
2013-08-30 06:09:00,74.0,71.0,29.99,South,186,9.0,13.0,90,0.00,,,0.00,weatherlink.com 1.10,2013-08-30 10:09:00,
2013-08-30 06:24:00,74.0,71.0,30.00,SSW,202,5.0,15.0,90,0.00,,,0.00,weatherlink.com 1.10,2013-08-30 10:24:00,
2013-08-30 06:40:00,74.0,71.0,30.00,WSW,243,5.0,13.0,90,0.00,,,0.00,weatherlink.com 1.10,2013-08-30 10:40:00,
2013-08-30 06:56:00,74.0,71.0,30.00,SW,229,8.0,14.0,90,0.00,,,0.00,weatherlink.com 1.10,2013-08-30 10:56:00,
2013-08-30 07:10:00,74.3,71.0,30.01,WSW,245,11.0,15.0,90,0.00,,,0.00,weatherlink.com 1.10,2013-08-30 11:10:00,
2013-08-30 07:26:00,74.7,71.0,30.01,SW,221,17.0,17.0,89,0.00,,,0.00,weatherlink.com 1.10,2013-08-30 11:26:00,
2013-08-30 07:40:00,75.0,71.0,30.02,SSW,211,12.0,18.0,88,0.00,,,0.00,weatherlink.com 1.10,2013-08-30 11:40:00,
2013-08-30 07:55:00,75.3,72.0,30.02,SW,235,15.0,18.0,88,0.00,,,0.00,weatherlink.com 1.10,2013-08-30 11:55:00,
2013-08-30 08:10:00,75.4,71.0,30.02,SSW,198,9.0,19.0,87,0.00,,,0.00,weatherlink.com 1.10,2013-08-30 12:10:00,
2013-08-30 08:25:00,75.6,71.0,30.02,SW,220,17.0,22.0,86,0.00,,,0.00,weatherlink.com 1.10,2013-08-30 12:25:00,
2013-08-30 08:41:00,75.9,72.0,30.02,SW,230,17.0,21.0,86,0.00,,,0.00,weatherlink.com 1.10,2013-08-30 12:41:00,
2013-08-30 08:55:00,76.0,71.0,30.03,SSW,209,12.0,19.0,85,0.00,,,0.00,weatherlink.com 1.10,2013-08-30 12:55:00,
2013-08-30 09:10:00,76.2,71.0,30.03,SSW,211,17.0,19.0,83,0.00,,,0.00,weatherlink.com 1.10,2013-08-30 13:10:00,
2013-08-30 09:25:00,76.6,71.0,30.03,SW,224,11.0,18.0,83,0.00,,,0.00,weatherlink.com 1.10,2013-08-30 13:25:00,
2013-08-30 09:40:00,77.0,72.0,30.04,SW,217,10.0,18.0,83,0.00,,,0.00,weatherlink.com 1.10,2013-08-30 13:40:00,
2013-08-30 09:55:00,76.8,71.0,30.04,SW,219,9.0,17.0,82,0.00,,,0.00,weatherlink.com 1.10,2013-08-30 13:55:00,
2013-08-30 10:10:00,76.8,71.0,30.03,SSW,199,11.0,18.0,82,0.00,,,0.00,weatherlink.com 1.10,2013-08-30 14:10:00,
2013-08-30 10:25:00,76.8,71.0,30.04,South,186,11.0,18.0,83,0.00,,,0.00,weatherlink.com 1.10,2013-08-30 14:25:00,
2013-08-30 10:40:00,77.2,71.0,30.04,SW,225,15.0,17.0,82,0.00,,,0.00,weatherlink.com 1.10,2013-08-30 14:40:00,
2013-08-30 10:55:00,77.3,71.0,30.04,SW,225,8.0,16.0,82,0.00,,,0.00,weatherlink.com 1.10,2013-08-30 14:55:00,
2013-08-30 11:10:00,77.8,71.0,30.04,SSW,194,6.0,15.0,80,0.00,,,0.00,weatherlink.com 1.10,2013-08-30 15:10:00,
2013-08-30 11:25:00,77.8,71.0,30.03,SSW,212,10.0,14.0,79,0.00,,,0.00,weatherlink.com 1.10,2013-08-30 15:25:00,
2013-08-30 11:40:00,78.0,70.0,30.03,SSW,213,10.0,15.0,77,0.00,,,0.00,weatherlink.com 1.10,2013-08-30 15:40:00,
2013-08-30 11:55:00,79.1,69.0,30.03,South,173,3.0,12.0,72,0.00,,,0.00,weatherlink.com 1.10,2013-08-30 15:55:00,
2013-08-30 12:10:00,79.3,71.0,30.02,WSW,250,9.0,14.0,75,0.00,,,0.00,weatherlink.com 1.10,2013-08-30 16:10:00,
2013-08-30 12:25:00,79.3,70.0,30.02,SW,226,8.0,14.0,72,0.00,,,0.00,weatherlink.com 1.10,2013-08-30 16:25:00,
2013-08-30 12:40:00,79.0,69.0,30.02,WSW,242,9.0,13.0,72,0.00,,,0.00,weatherlink.com 1.10,2013-08-30 16:40:00,
2013-08-30 12:55:00,79.6,69.0,30.02,SW,236,9.0,13.0,70,0.00,,,0.00,weatherlink.com 1.10,2013-08-30 16:55:00,
2013-08-30 13:10:00,78.5,70.0,30.02,SSW,207,11.0,17.0,75,0.00,,,0.00,weatherlink.com 1.10,2013-08-30 17:10:00,
2013-08-30 13:25:00,78.2,70.0,30.02,SW,231,12.0,18.0,75,0.00,,,0.00,weatherlink.com 1.10,2013-08-30 17:25:00,
2013-08-30 13:40:00,78.7,70.0,30.02,SSW,203,11.0,14.0,75,0.00,,,0.00,weatherlink.com 1.10,2013-08-30 17:40:00,
2013-08-30 13:55:00,79.1,70.0,30.02,SSW,212,15.0,15.0,74,0.00,,,0.00,weatherlink.com 1.10,2013-08-30 17:55:00,
2013-08-30 14:10:00,78.8,69.0,30.02,SW,216,12.0,17.0,73,0.00,,,0.00,weatherlink.com 1.10,2013-08-30 18:10:00,
2013-08-30 14:25:00,78.1,69.0,30.01,SSW,212,14.0,16.0,74,0.00,,,0.00,weatherlink.com 1.10,2013-08-30 18:25:00,
2013-08-30 14:40:00,79.2,71.0,30.01,WSW,239,8.0,16.0,75,0.00,,,0.00,weatherlink.com 1.10,2013-08-30 18:40:00,
2013-08-30 14:55:00,79.4,68.0,30.01,SW,227,10.0,14.0,68,0.00,,,0.00,weatherlink.com 1.10,2013-08-30 18:55:00,
2013-08-30 15:10:00,79.9,68.0,30.00,SSW,212,8.0,12.0,67,0.00,,,0.00,weatherlink.com 1.10,2013-08-30 19:10:00,
2013-08-30 15:25:00,80.3,69.0,30.00,WSW,242,6.0,10.0,68,0.00,,,0.00,weatherlink.com 1.10,2013-08-30 19:25:00,
2013-08-30 15:40:00,79.9,69.0,30.00,SW,214,6.0,13.0,70,0.00,,,0.00,weatherlink.com 1.10,2013-08-30 19:40:00,
2013-08-30 15:55:00,80.4,71.0,30.00,NE,37,5.0,10.0,73,0.00,,,0.00,weatherlink.com 1.10,2013-08-30 19:55:00,
2013-08-30 16:11:00,80.2,71.0,29.99,ENE,77,7.0,11.0,74,0.00,,,0.00,weatherlink.com 1.10,2013-08-30 20:11:00,
2013-08-30 16:26:00,80.5,72.0,29.99,NE,54,7.0,10.0,74,0.00,,,0.00,weatherlink.com 1.10,2013-08-30 20:26:00,
2013-08-30 16:41:00,80.2,71.0,30.00,NE,37,5.0,10.0,74,0.00,,,0.00,weatherlink.com 1.10,2013-08-30 20:41:00,
2013-08-30 16:56:00,80.1,71.0,30.00,NNE,21,6.0,11.0,74,0.00,,,0.00,weatherlink.com 1.10,2013-08-30 20:56:00,
2013-08-30 17:11:00,79.5,71.0,29.99,NE,48,4.0,10.0,75,0.00,,,0.00,weatherlink.com 1.10,2013-08-30 21:11:00,
2013-08-30 17:26:00,80.5,71.0,29.99,ENE,70,6.0,7.0,73,0.00,,,0.00,weatherlink.com 1.10,2013-08-30 21:26:00,
2013-08-30 17:41:00,81.3,71.0,29.99,ESE,103,3.0,5.0,70,0.00,,,0.00,weatherlink.com 1.10,2013-08-30 21:41:00,
2013-08-30 17:56:00,81.2,71.0,29.99,SE,128,5.0,6.0,70,0.00,,,0.00,weatherlink.com 1.10,2013-08-30 21:56:00,
2013-08-30 18:11:00,81.1,71.0,29.98,ESE,116,5.0,6.0,71,0.00,,,0.00,weatherlink.com 1.10,2013-08-30 22:11:00,
2013-08-30 18:26:00,80.9,70.0,29.98,SE,131,5.0,8.0,70,0.00,,,0.00,weatherlink.com 1.10,2013-08-30 22:26:00,
2013-08-30 18:41:00,80.5,70.0,29.98,SE,139,5.0,7.0,71,0.00,,,0.00,weatherlink.com 1.10,2013-08-30 22:41:00,
2013-08-30 18:56:00,79.9,71.0,29.98,ESE,120,4.0,9.0,73,0.00,,,0.00,weatherlink.com 1.10,2013-08-30 22:56:00,
2013-08-30 19:11:00,79.0,71.0,29.98,SE,129,5.0,9.0,77,0.00,,,0.00,weatherlink.com 1.10,2013-08-30 23:11:00,
2013-08-30 19:26:00,78.1,72.0,29.98,East,101,4.0,7.0,81,0.00,,,0.00,weatherlink.com 1.10,2013-08-30 23:26:00,
2013-08-30 19:41:00,76.8,71.0,29.99,ENE,65,3.0,4.0,83,0.00,,,0.00,weatherlink.com 1.10,2013-08-30 23:41:00,
2013-08-30 19:56:00,75.9,72.0,29.99,ENE,71,1.0,4.0,86,0.00,,,0.00,weatherlink.com 1.10,2013-08-30 23:56:00,
2013-08-30 20:11:00,75.3,71.0,29.99,ESE,103,2.0,5.0,87,0.00,,,0.00,weatherlink.com 1.10,2013-08-31 00:11:00,
2013-08-30 20:26:00,75.0,71.0,29.99,ENE,74,1.0,4.0,88,0.00,,,0.00,weatherlink.com 1.10,2013-08-31 00:26:00,
2013-08-30 20:41:00,74.8,71.0,30.00,ENE,77,4.0,4.0,89,0.00,,,0.00,weatherlink.com 1.10,2013-08-31 00:41:00,
2013-08-30 20:56:00,74.7,72.0,30.00,East,79,3.0,6.0,90,0.00,,,0.00,weatherlink.com 1.10,2013-08-31 00:56:00,
2013-08-30 21:11:00,74.6,72.0,30.01,ENE,72,3.0,6.0,90,0.00,,,0.00,weatherlink.com 1.10,2013-08-31 01:11:00,
2013-08-30 21:26:00,74.8,72.0,30.01,NE,54,3.0,5.0,90,0.00,,,0.00,weatherlink.com 1.10,2013-08-31 01:26:00,
2013-08-30 21:41:00,74.9,72.0,30.01,NE,49,2.0,4.0,91,0.00,,,0.00,weatherlink.com 1.10,2013-08-31 01:41:00,
2013-08-30 21:56:00,75.0,72.0,30.00,NE,56,4.0,5.0,90,0.00,,,0.00,weatherlink.com 1.10,2013-08-31 01:56:00,
2013-08-30 22:11:00,74.9,72.0,30.01,NE,51,2.0,4.0,91,0.00,,,0.00,weatherlink.com 1.10,2013-08-31 02:11:00,
2013-08-30 22:26:00,74.7,72.0,30.01,ENE,63,2.0,3.0,91,0.00,,,0.00,weatherlink.com 1.10,2013-08-31 02:26:00,
2013-08-30 22:41:00,74.7,72.0,30.00,East,82,3.0,4.0,91,0.00,,,0.00,weatherlink.com 1.10,2013-08-31 02:41:00,
2013-08-30 22:56:00,74.7,72.0,30.00,ENE,57,4.0,6.0,91,0.00,,,0.00,weatherlink.com 1.10,2013-08-31 02:56:00,
2013-08-30 23:11:00,74.5,72.0,30.00,East,85,2.0,4.0,91,0.00,,,0.00,weatherlink.com 1.10,2013-08-31 03:11:00,
2013-08-30 23:26:00,74.3,72.0,29.99,East,81,1.0,3.0,92,0.00,,,0.00,weatherlink.com 1.10,2013-08-31 03:26:00,
2013-08-30 23:41:00,74.3,72.0,29.99,East,99,2.0,2.0,92,0.00,,,0.00,weatherlink.com 1.10,2013-08-31 03:41:00,
2013-08-30 23:56:00,74.2,72.0,29.99,East,99,2.0,3.0,92,0.00,,,0.00,weatherlink.com 1.10,2013-08-31 03:56:00,